Change the Weather History Date:

Wednesday, March 13, 2013

  Actual Average Record
Temperature  
Mean Temperature 50 °F 45 °F  
Max Temperature 69 °F 60 °F 85 °F (2012)
Min Temperature 31 °F 31 °F 19 °F (1999)
Degree Days  
Heating Degree Days 15 20  
Month to date heating degree days 238 278  
Since 1 July heating degree days 3471 3745  
Cooling Degree Days 0 0  
Month to date cooling degree days 0 0  
Year to date cooling degree days 0 0  
Moisture  
Dew Point 27 °F    
Average Humidity 48    
Maximum Humidity 75    
Minimum Humidity 20    
Precipitation  
Precipitation 0.00 in 0.06 in 0.13 in (1999)
Month to date precipitation 0.03 0.57  
Year to date precipitation 1.59 1.44  
Snow  
Snow 0.00 in - - ()
Month to date snowfall T  
Since 1 July snowfall 19.5  
Snow Depth 0.00 in    
Sea Level Pressure  
Sea Level Pressure 30.23 in    
Wind  
Wind Speed 9 mph (SSW)    
Max Wind Speed 24 mph    
Max Gust Speed 30 mph    
Visibility 10 miles    
Events      
T = Trace of Precipitation, MM = Missing Value Source: NWS Daily Summary

Daily Weather History Graph

Daily Weather History Graph

Search for Another Location

Airport or City:

Trip Planner

Search our weather history database for the weather conditions in past years. The results will help you decide how hot, cold, wet, or windy it might be!

Date:

Astronomy

Mar. 13, 2013 Rise Set
Actual Time 7:59 AM CDT 7:51 PM CDT
Civil Twilight 7:33 AM CDT 8:17 PM CDT
Nautical Twilight 7:03 AM CDT 8:47 PM CDT
Astronomical Twilight 6:33 AM CDT 9:17 PM CDT
Moon 8:44 AM CDT (3/13) 10:05 PM CDT (3/13)
Length of Visible Light 12h 44m
Length of Day
11h 52m
Waxing Crescent, 4% of the Moon is Illuminated
Mar 13
Waxing Crescent
Mar 19
First Quarter
Mar 27
Full
Apr 2
Last Quarter
Apr 10
New

Hourly Weather History & Observations

Time (CDT) Temp. Windchill Dew Point Humidity Pressure Visibility Wind Dir Wind Speed Gust Speed Precip Events Conditions
12:53 AM 37.0 °F 32.4 °F 23.0 °F 57% 30.32 in 10.0 mi SSW 5.8 mph - N/A   Clear
1:53 AM 35.1 °F 32.2 °F 23.0 °F 61% 30.31 in 10.0 mi SSW 3.5 mph - N/A   Clear
2:53 AM 34.0 °F 29.8 °F 23.0 °F 64% 30.31 in 10.0 mi SSW 4.6 mph - N/A   Clear
3:53 AM 30.9 °F 26.2 °F 23.0 °F 72% 30.30 in 10.0 mi SSW 4.6 mph - N/A   Clear
4:53 AM 32.0 °F 27.5 °F 24.1 °F 73% 30.30 in 10.0 mi SSW 4.6 mph - N/A   Clear
5:53 AM 33.1 °F 26.1 °F 25.0 °F 72% 30.29 in 10.0 mi SSW 8.1 mph - N/A   Clear
6:53 AM 33.1 °F 25.5 °F 26.1 °F 75% 30.29 in 10.0 mi SSW 9.2 mph - N/A   Clear
7:53 AM 34.0 °F 27.2 °F 27.0 °F 75% 30.29 in 10.0 mi SSW 8.1 mph - N/A   Clear
8:53 AM 39.0 °F 32.3 °F 28.9 °F 67% 30.29 in 10.0 mi SSW 10.4 mph - N/A   Clear
9:53 AM 46.9 °F - 30.0 °F 52% 30.29 in 10.0 mi SSW 19.6 mph 27.6 mph N/A   Clear
10:53 AM 53.1 °F - 30.9 °F 43% 30.27 in 10.0 mi SSW 23.0 mph - N/A   Clear
11:53 AM 57.0 °F - 30.0 °F 36% 30.25 in 10.0 mi SW 20.7 mph 29.9 mph N/A   Clear
12:53 PM 61.0 °F - 28.9 °F 30% 30.24 in 10.0 mi SW 12.7 mph 25.3 mph N/A   Clear
1:53 PM 64.9 °F - 28.9 °F 26% 30.20 in 10.0 mi South 12.7 mph 20.7 mph N/A   Clear
2:53 PM 66.0 °F - 28.9 °F 25% 30.17 in 10.0 mi South 12.7 mph - N/A   Clear
3:53 PM 68.0 °F - 28.0 °F 22% 30.15 in 10.0 mi SSW 10.4 mph 17.3 mph N/A   Clear
4:53 PM 69.1 °F - 27.0 °F 21% 30.15 in 10.0 mi South 5.8 mph - N/A   Clear
5:53 PM 68.0 °F - 26.1 °F 21% 30.15 in 10.0 mi SE 5.8 mph - N/A   Clear
6:53 PM 66.0 °F - 26.1 °F 22% 30.15 in 10.0 mi South 8.1 mph - N/A   Clear
7:53 PM 60.1 °F - 27.0 °F 28% 30.16 in 10.0 mi SSE 4.6 mph - N/A   Clear
8:53 PM 55.9 °F - 28.9 °F 36% 30.17 in 10.0 mi South 5.8 mph - N/A   Clear
9:53 PM 51.1 °F - 28.0 °F 41% 30.17 in 10.0 mi SSW 3.5 mph - N/A   Clear
10:53 PM 45.0 °F 41.8 °F 28.0 °F 52% 30.18 in 10.0 mi SSW 5.8 mph - N/A   Clear
11:53 PM 45.0 °F 40.6 °F 28.9 °F 53% 30.18 in 10.0 mi SSW 8.1 mph - N/A   Clear